ARIANE 5 DEB (SYLDA), 26722

Orbit data source: Space-Track

ARIANE 5 DEB (SYLDA), 26722 is space debris in HEO originally from a launch on Thu, 08 Mar 2001 UTC launched from the French Guiana (FRGUI). Debris objects in space refer to the collection of defunct objects orbiting the Earth. Examples of debris include non-operational satellites, rocket bodies, and fragments generated from explosions, collisions, or faulty payload assembly.

Loading next visibility...
ARIANE 5 DEB (SYLDA) details
Identifier
26722, 2001-011D
Orbit
HEO
Last TLE update1 day ago
Origin
Flag of FRArianespace (FR)
ManufacturerAstrium
MissionSpacecraft
Bus & MotorSYLDA 5, Unknown motor
Mass440 kg wet, 440 kg dry
Launch date (UTC)
2001-03-08 (24 years ago)
Launch vehicleUnknown
Launch site
French Guiana (FRGUI)
Object type
Payload
Rocket body
Debris
Shape & HBRCyl, 4.9 m
Radar Cross Section25.270 m², Large (>1 m²)

Expand to show TLE details & history

TLE from 1 day ago
0 ARIANE 5 DEB (SYLDA)
1 26722U 01011D   25046.36369489 -.00000153  00000-0 -27835-2 0  9995
2 26722   1.8015 101.9818 7080231 192.6521 130.8190  2.22964914195052
Epoch: 2025-02-15T08:43Z
Definitive object data (Epoch: 2025-02-15T08:43:43.238Z)
Latitude0.00008°
Longitude-174.20769°
Altitude33,642.959 km
Speed1.953 km/s
True Right ascension06h 49m 20s
True Declination0° 00' 00"
Sunlit
Object was in daylight at TLE epoch
Visualization TLE readout
Latitude1.47954°
Longitude-121.50054°
Altitude20,598.514 km
Speed3.667 km/s
Apparent Right ascension09h 41m 34s
Apparent Declination-7° 46' 57"
Sunlit
Object is in full shadow
Visualization observer readout
Local Sidereal Time14:10:50
Azimuth249.102° W
Elevation11.898°
Doppler factor1
Orbital elements
Apogee altitude35,904.302 km
Perigee altitude849.807 km
Semi-major axis24,755.191 km
Eccentricity0.7080231
Inclination1.8015°
RAAN101.9818°
Arg. of periapsis192.6521°
True anomaly167.65494°
Mean anomaly130.819°
Eccentric anomaly150.68247°
Mean motion0.55724 °/min
BSTAR-0.0027835
Orbital period646.04 mins
Loading maneuver chart data...
Loading historical data...
Loading historical data...
Loading historical data...
Loading historical data...
Loading historical data...
Loading historical data...
Loading historical data...
Other satellites on launch #11 in the year 2001 (2001-03-08 UTC)

ARIANE 5 DEB (SYLDA) Visibility forecast

Observer location: undefined°, undefined

Span
Click to sort rows by Start time (UTC) header in descending order
Start Az.
Max El. time (UTC)
Max El. Az.
Max El.
End time (UTC)
End Az.
85 mins2025-02-16 11:24:28.792Z249.079° W2025-02-16 12:36:28.792Z220.304° SW14.791°2025-02-16 12:49:28.792Z187.443° SSW
595 mins2025-02-17 00:21:28.792Z212.184° SW2025-02-17 04:48:28.792Z184.317° SSW34.829°2025-02-17 10:16:28.792Z146.882° SSE
|